Location: Recife
(8.0585°S, 34.8848°W)
Time: 12:16:02
(UTC-03:00)

Courier 1B - Pass Details

Date: 14 April 2026
Orbit: 962 x 1209 km, 28.3° (Epoch: 7 May)

Event Time Altitude Azimuth Distance (km) Brightness Sun altitude
Rises 02:27:01 0° 340° (NNW) 3,867 - -43.8°
Reaches altitude 10° 02:32:19 10° 12° (NNE) 2,983 - -42.5°
Exits shadow 02:32:33 10° 14° (NNE) 2,965 10.1 -42.4°
Maximum altitude 02:34:27 11° 29° (NNE) 2,910 10.2 -41.9°
Drops below altitude 10° 02:36:37 10° 46° (NE) 3,036 10.5 -41.4°
Sets 02:42:09 0° 78° (ENE) 4,055 11.6 -40.1°
